Location: De Greiden
(52.9496°N, 5.9137°E)
Time: 01:32:13
(UTC+00:00)

X-37B - Pass Details

Date: 24 January 2021
Orbit: 383 x 391 km, 45.0° (Epoch: 10 February)

Event Time Altitude Azimuth Distance (km) Brightness Sun altitude
Rises 16:49:15 0° 223° (SW) 2,266 5.9 -6.6°
Reaches altitude 10° 16:52:00 10° 197° (SSW) 1,416 4.0 -7.0°
Maximum altitude 16:53:47 14° 162° (SSE) 1,194 3.1 -7.2°
Drops below altitude 10° 16:55:35 10° 128° (SE) 1,421 3.1 -7.5°
Enters shadow 16:57:11 - 110° (ESE) 1,877 3.6 -7.7°
